Wind_Speed
74 65 58 50 49 44 47 56 60 62 68 69 58 45 37 28 22 19 20 25 27 35 36 41 40 44 41 32 22 16 11 8 13 23 35 44 51 61 63 69 82 93 98 99 96 98 96 94 95 96 92 85 83 84
66 57 51 42 42 46 52 57 58 63 68 66 56 41 34 23 18 17 17 20 25 31 31 34 37 36 39 34 24 16 14 13 14 14 20 22 30 45 54 62 80 92 97 99 100 97 91 93 91 95 88 87 86 84
58 48 41 40 44 47 53 56 59 66 64 57 51 37 31 20 16 16 17 20 25 28 31 35 37 36 36 36 28 22 16 14 17 23 18 11 20 31 41 59 75 90 96 97 95 93 92 93 94 91 92 89 89 88
48 43 39 40 42 49 54 57 62 62 60 52 42 30 27 20 15 15 18 21 23 27 24 31 27 36 35 31 35 29 22 16 17 20 24 28 26 20 26 45 71 88 92 93 93 90 92 93 93 93 92 91 93 87
46 44 42 41 46 50 56 59 59 59 53 46 36 24 26 24 13 13 17 19 23 28 24 26 27 25 31 36 32 35 32 25 24 22 23 29 30 27 20 32 50 77 91 96 98 97 95 93 90 90 89 90 95 90
40 38 41 46 50 56 60 59 59 53 46 38 31 21 18 19 14 11 13 18 22 24 27 28 25 25 29 29 36 40 37 37 34 34 27 23 21 27 41 42 46 65 86 93 97 98 97 97 97 100 98 101 95 90
39 41 45 48 55 60 58 59 54 48 42 34 27 19 18 15 14 9 14 17 19 22 24 24 26 27 28 22 31 32 33 36 34 35 34 29 19 14 30 46 60 70 79 93 99 101 102 103 102 101 100 102 101 94
43 43 46 52 59 56 59 55 49 45 40 34 29 21 18 17 14 14 19 22 23 25 23 25 24 20 21 19 16 22 22 25 27 25 25 21 18 15 15 31 47 64 86 96 100 103 107 108 107 107 106 104 97 103
40 44 51 56 56 56 56 49 45 43 38 32 29 26 22 20 20 18 18 21 21 21 23 25 24 21 16 16 9 7 10 15 15 17 17 16 13 9 7 17 35 51 69 90 104 110 111 113 113 111 109 106 105 98
41 47 54 59 53 57 53 47 43 40 37 33 29 26 25 25 26 28 28 28 26 27 28 26 27 23 20 14 11 3 3 6 10 8 6 6 5 17 5 10 25 43 59 77 95 105 113 115 113 111 108 105 103 101
42 47 54 52 53 56 51 46 41 39 37 34 31 29 26 24 23 24 25 28 27 28 32 29 31 28 22 20 17 11 10 9 9 10 7 6 8 9 11 9 12 23 39 57 73 92 104 111 114 112 108 104 100 97
44 49 53 51 53 56 48 43 39 37 38 37 34 33 31 30 28 27 25 25 23 22 25 26 29 31 28 25 22 20 21 19 18 16 19 13 12 12 13 11 15 18 19 33 53 70 87 101 106 106 104 99 96 96
46 50 53 50 54 53 44 40 39 36 35 34 32 28 26 27 26 24 24 23 20 19 19 22 24 27 27 27 23 20 21 23 27 28 23 25 23 19 16 16 11 8 14 23 32 47 65 80 92 98 101 102 101 99
45 50 50 49 54 51 42 40 38 35 34 35 35 34 32 29 29 26 24 23 22 20 20 22 23 26 28 28 26 24 21 23 24 29 35 32 31 29 26 22 22 21 18 19 26 38 46 56 70 82 90 96 103 105
45 49 48 50 53 47 42 40 37 34 34 35 37 36 32 30 27 25 25 24 25 26 26 25 25 26 27 27 27 26 23 22 23 28 31 39 42 37 34 31 27 26 21 23 20 22 32 46 53 61 70 82 93 98
47 47 46 51 51 45 40 38 33 33 34 35 33 32 32 30 27 24 24 24 24 24 25 26 27 29 28 26 25 25 25 23 22 23 27 33 38 41 43 40 37 32 29 26 26 23 22 26 37 48 56 63 72 81
45 44 47 51 48 41 38 34 33 33 33 33 33 30 28 27 26 24 23 23 25 27 29 28 28 30 30 30 29 28 24 22 23 24 24 26 33 39 40 44 44 43 37 32 33 29 26 25 27 31 38 46 58 65
41 43 47 49 43 39 35 34 33 34 34 33 31 28 28 28 27 26 27 28 26 25 26 29 31 32 31 29 29 29 27 25 24 23 23 25 26 29 35 39 41 45 45 41 38 36 32 27 26 26 27 33 39 46
39 43 47 44 37 34 32 29 31 31 32 31 32 34 32 29 28 27 26 27 27 27 28 29 30 33 34 33 32 32 30 30 29 27 25 23 25 28 28 33 38 41 43 49 44 44 41 36 31 31 29 30 31 36
39 44 43 36 32 29 23 27 26 25 29 39 40 44 41 37 30 29 32 29 27 27 27 30 33 34 35 36 36 36 34 31 30 31 29 26 27 28 29 30 34 38 40 43 48 47 49 48 43 39 35 34 34 35
41 42 35 29 27 22 24 25 26 20 25 34 47 48 49 39 37 31 32 25 22 25 29 31 33 33 36 39 40 38 36 33 32 30 28 27 27 28 29 30 33 33 34 40 44 50 55 56 53 49 47 45 45 41
40 35 27 26 22 18 17 31 34 25 24 41 48 49 51 42 44 45 47 35 31 45 42 41 40 44 48 50 50 48 41 38 35 30 24 20 19 22 27 31 29 29 31 37 43 43 47 56 60 58 57 56 55 52
36 28 25 21 16 20 16 23 35 33 41 44 46 45 46 43 44 40 44 35 37 49 49 50 49 50 52 52 48 44 38 36 37 36 35 30 26 23 23 24 23 26 31 34 35 41 43 46 53 61 65 64 63 62
30 24 22 17 15 17 20 22 33 40 45 42 48 48 39 41 47 61 61 64 62 62 58 51 50 51 49 46 43 40 34 33 33 32 32 29 27 27 26 22 19 20 26 30 32 36 40 41 44 51 59 68 71 70
25 22 19 18 18 21 27 29 30 45 45 45 49 49 43 42 58 60 68 64 62 67 64 59 60 57 50 46 43 38 31 31 32 30 29 27 26 27 25 21 20 19 20 23 28 31 34 37 39 40 49 56 64 71
21 19 17 18 19 22 26 33 36 37 37 42 47 58 58 57 62 67 63 66 69 72 66 62 60 56 49 46 44 41 37 32 30 29 28 26 24 21 25 27 25 21 18 19 21 24 30 35 34 35 37 43 53 60
19 18 17 21 22 21 22 26 26 32 34 39 52 51 56 60 63 65 66 68 71 62 61 59 54 49 46 44 42 38 37 37 35 33 31 30 28 25 21 19 17 19 21 20 19 20 23 28 33 33 33 36 38 46
18 17 16 22 23 22 25 27 29 34 39 26 16 28 38 46 54 63 64 62 58 58 56 53 48 43 41 39 37 36 35 34 34 33 33 32 29 28 28 27 25 18 18 21 19 19 20 22 25 28 31 32 33 36
17 17 16 20 20 20 21 26 31 37 39 46 39 21 30 40 47 51 52 54 57 55 50 47 47 43 38 38 36 33 30 28 28 27 25 25 27 27 26 25 26 25 17 14 16 17 18 17 18 22 24 26 28 31
13 13 16 17 19 20 23 26 32 35 40 44 47 47 43 45 51 51 50 50 51 50 45 44 43 38 35 36 35 34 32 31 32 30 29 27 25 24 23 21 20 21 21 16 13 11 12 15 14 16 18 20 22 24
13 14 15 16 18 18 25 31 36 38 42 48 52 53 56 54 56 56 56 56 54 48 43 43 43 39 36 32 34 33 34 33 32 31 30 30 29 28 26 25 23 20 18 16 14 12 10 10 10 10 12 14 16 18
10 9 12 18 19 19 26 34 37 40 42 47 53 56 56 56 58 61 60 59 59 56 53 48 42 38 35 34 34 33 35 35 33 32 31 30 30 29 28 26 25 24 22 19 16 14 11 9 8 7 7 8 9 12
9 10 16 20 21 22 25 31 38 38 42 47 50 55 59 60 60 59 58 57 54 51 50 48 45 44 41 37 34 32 31 31 31 31 30 29 29 29 28 28 26 25 24 23 20 17 15 13 10 8 7 6 5 6
Wind_Direction
326 327 326 328 326 334 337 332 332 337 340 340 343 343 347 349 358 12 13 22 20 7 5 13 11 14 14 15 16 36 59 106 156 182 190 198 199 195 197 194 190 193 195 198 202 204 203 203 212 212 213 212 216 224
328 327 330 327 337 339 334 333 336 339 339 340 344 348 354 351 359 11 10 15 8 2 7 6 8 18 21 22 26 37 69 105 132 164 185 198 208 199 194 189 190 191 193 197 200 204 203 203 209 216 212 214 216 220
328 330 327 333 338 334 334 334 338 338 338 340 343 348 357 348 350 358 11 10 1 357 358 3 11 12 21 23 32 45 63 97 123 134 138 159 207 203 193 186 189 190 193 197 200 201 205 205 206 216 212 214 219 220
330 326 331 329 331 336 334 337 337 336 338 340 341 346 354 347 336 344 1 12 9 1 348 357 3 8 12 29 38 47 61 67 111 130 142 151 147 197 199 192 191 193 191 195 201 203 205 208 209 212 223 213 218 219
332 327 323 331 334 335 336 336 337 337 338 338 340 345 350 350 338 335 348 357 5 2 356 355 12 6 19 25 44 56 59 74 75 92 124 131 142 143 188 207 199 196 194 196 201 203 206 209 209 214 210 224 217 217
332 331 332 336 337 337 335 337 338 340 340 338 337 337 356 352 348 314 325 342 351 345 353 354 8 17 30 36 35 36 55 65 77 80 91 112 138 163 175 181 201 196 199 199 203 204 207 210 210 213 216 223 225 219
332 335 338 339 338 335 337 340 340 342 342 339 335 325 326 341 335 308 313 325 323 327 336 345 352 358 18 37 48 43 35 45 66 80 85 83 91 155 186 194 191 189 195 202 206 206 208 212 213 214 217 221 221 225
331 338 340 341 338 338 340 340 341 341 340 339 339 328 310 312 320 325 330 326 323 329 328 329 338 348 0 22 46 60 55 44 39 49 70 80 100 123 166 197 202 201 194 196 206 209 210 214 215 215 217 220 219 220
341 342 340 339 339 341 341 342 343 345 343 340 336 331 324 308 294 300 297 301 306 307 319 324 323 328 339 348 8 57 72 78 60 56 54 64 77 70 121 177 197 206 206 204 204 205 211 214 216 218 218 219 221 223
341 341 338 339 340 342 343 344 345 348 349 346 340 336 330 321 311 301 294 291 289 289 293 301 303 309 306 309 325 312 153 128 133 107 94 125 302 307 256 181 196 203 209 210 211 212 212 213 216 220 222 221 221 222
337 338 334 340 341 343 343 345 348 352 354 353 350 347 342 332 321 319 308 297 295 291 293 295 297 297 288 286 280 269 269 240 206 188 191 227 254 269 282 279 249 221 213 215 217 218 220 220 220 221 222 221 223 225
331 333 337 340 341 343 343 344 347 350 354 356 354 350 347 341 335 327 326 320 311 298 295 295 299 302 298 292 286 273 256 250 236 239 232 222 236 241 262 261 277 270 246 223 219 221 224 226 228 226 226 227 224 225
330 331 336 338 340 344 343 345 347 348 348 352 353 352 351 350 345 339 338 336 331 321 312 304 304 303 304 304 303 287 264 256 242 234 236 240 238 242 240 254 245 236 243 234 225 228 227 227 229 230 230 229 228 227
329 331 335 337 340 343 343 344 347 346 348 351 350 354 354 353 353 350 344 339 338 334 327 320 316 316 315 312 307 304 287 262 253 248 237 233 235 243 246 245 247 248 261 259 230 227 228 231 231 231 232 232 231 233
329 333 335 337 339 341 342 344 344 346 348 348 350 350 349 350 346 347 349 349 350 348 344 337 333 329 326 321 317 310 300 291 272 256 249 246 240 235 235 243 248 251 258 251 245 233 230 226 228 230 230 230 232 233
328 333 335 336 337 338 341 343 345 347 346 345 344 346 346 346 348 346 344 344 343 339 337 337 338 336 334 331 325 318 313 304 289 275 261 251 250 247 240 236 238 242 247 247 244 241 240 230 224 225 227 227 228 230
329 332 334 335 337 339 342 345 346 345 343 346 346 346 346 345 347 345 341 342 342 341 339 341 343 343 341 337 333 331 322 311 300 292 278 262 253 251 250 246 241 240 235 233 238 240 240 240 229 219 222 228 228 228
329 331 332 334 337 341 345 346 349 352 354 356 357 358 358 357 357 356 351 349 345 344 347 346 347 346 342 339 334 328 321 314 306 300 289 276 267 254 250 247 245 243 240 233 226 233 235 240 234 219 222 225 225 225
330 331 332 336 340 344 348 353 359 7 10 10 11 10 5 359 354 354 351 350 351 352 350 346 343 343 341 339 337 330 324 318 312 305 298 289 275 266 255 250 249 244 240 238 234 228 230 231 233 219 218 223 222 222
330 331 335 338 341 344 350 351 357 359 3 11 16 14 10 6 358 358 357 353 350 346 342 343 341 340 339 338 336 333 329 321 310 300 293 287 280 273 270 262 253 250 245 241 238 231 230 228 227 223 217 221 228 227
330 333 335 337 339 344 351 355 352 354 352 2 13 8 7 360 0 355 351 342 354 352 345 342 337 337 340 339 336 334 330 326 319 309 305 295 283 278 273 266 262 256 248 247 243 236 233 232 231 227 220 219 224 225
332 333 334 336 337 341 351 4 4 359 352 13 8 4 1 360 349 352 354 344 354 354 349 350 348 347 348 343 338 332 330 328 321 320 313 301 284 276 273 272 269 266 259 249 247 245 236 234 232 230 229 225 226 225
334 334 337 338 330 347 348 353 10 8 4 8 3 359 3 11 8 7 3 360 357 359 355 351 347 348 347 340 334 327 330 325 320 319 317 316 313 305 287 276 271 265 262 257 252 250 246 238 234 230 230 233 231 230
333 335 341 340 346 355 359 358 5 4 4 356 357 356 353 1 1 360 358 358 355 352 349 345 348 350 344 342 334 327 332 324 315 311 307 306 307 305 301 300 285 265 261 261 259 254 252 247 239 235 232 232 235 237
332 339 343 341 342 347 341 340 355 359 352 346 351 353 347 342 344 348 348 348 352 351 349 350 350 344 346 344 337 333 337 328 323 324 319 319 319 314 310 307 299 288 272 264 260 259 257 254 250 240 236 236 235 238
334 339 341 343 350 355 349 346 355 345 345 356 356 352 346 339 337 336 339 342 345 347 344 345 342 340 344 342 336 337 338 334 331 327 325 323 318 310 306 310 308 302 289 274 265 260 258 259 256 253 245 239 238 240
336 342 341 346 350 356 7 1 355 358 357 355 354 344 336 331 330 328 333 337 341 340 343 341 338 342 344 337 335 339 338 336 338 338 338 337 336 333 324 313 308 303 297 291 281 268 259 257 260 257 253 250 242 239
336 341 340 348 357 5 11 8 5 10 13 352 324 315 324 320 319 317 331 339 336 339 341 340 340 345 345 336 339 342 341 340 340 340 339 337 337 332 329 325 321 318 308 301 294 284 275 265 259 257 256 255 254 249
339 342 341 351 360 3 10 12 5 5 5 13 12 330 299 308 319 337 342 342 339 341 344 342 342 349 347 339 340 343 345 343 340 339 339 337 335 336 335 332 326 325 331 314 301 294 286 275 264 260 255 252 252 254
335 346 351 356 5 14 15 11 5 3 360 1 6 8 3 355 356 355 350 344 345 348 349 345 342 349 352 347 345 347 350 351 351 349 347 346 347 347 344 342 340 335 333 333 324 312 295 287 281 273 268 262 257 254
345 358 357 358 4 7 10 10 1 360 357 359 1 2 3 1 359 358 357 352 351 353 355 355 351 351 358 355 350 351 352 353 356 356 354 355 356 356 353 351 352 353 350 345 342 335 322 308 298 285 275 268 263 258
346 346 342 352 358 357 2 5 360 1 358 358 360 1 2 3 1 2 360 358 357 356 355 357 355 354 3 4 360 357 356 357 358 359 359 0 0 1 1 359 360 2 4 3 2 360 354 345 332 315 294 279 270 265
342 351 354 355 358 0 358 359 0 359 0 358 359 1 0 2 2 2 2 1 1 1 360 0 0 356 358 3 4 3 360 1 4 6 4 4 5 5 7 8 8 9 10 12 13 13 11 6 360 353 343 330 310 292
Height
10663 10651 10641 10633 10626 10618 10609 10600 10589 10577 10564 10551 10538 10525 10515 10507 10500 10495 10490 10483 10478 10472 10461 10449 10438 10426 10411 10397 10387 10380 10376 10376 10380 10383 10389 10395 10406 10417 10433 10454 10480 10503 10525 10546 10571 10581 10598 10622 10632 10647 10667 10692 10704 10708
10653 10642 10634 10627 10619 10611 10603 10592 10582 10570 10558 10543 10533 10522 10513 10507 10502 10497 10491 10486 10480 10474 10467 10456 10446 10435 10422 10407 10396 10388 10384 10382 10383 10391 10397 10406 10415 10427 10437 10458 10477 10498 10517 10537 10554 10577 10602 10616 10630 10639 10665 10681 10691 10700
10642 10633 10626 10619 10613 10606 10597 10586 10575 10564 10552 10539 10528 10519 10512 10506 10502 10498 10493 10488 10483 10478 10472 10463 10454 10446 10434 10422 10408 10397 10392 10390 10391 10394 10400 10408 10423 10437 10449 10462 10480 10498 10517 10536 10559 10578 10593 10607 10623 10636 10648 10669 10676 10688
10633 10626 10619 10613 10606 10599 10591 10580 10569 10557 10546 10536 10525 10518 10512 10506 10503 10500 10494 10489 10484 10479 10474 10469 10462 10452 10445 10435 10422 10410 10402 10397 10399 10401 10409 10418 10426 10442 10457 10470 10482 10497 10519 10539 10554 10575 10584 10597 10612 10628 10635 10654 10657 10678
10628 10622 10614 10608 10601 10593 10585 10574 10562 10552 10540 10530 10522 10515 10510 10505 10502 10499 10494 10490 10484 10481 10476 10472 10465 10459 10453 10444 10435 10426 10416 10410 10406 10409 10413 10421 10432 10444 10457 10472 10489 10502 10515 10531 10540 10555 10570 10585 10602 10614 10630 10629 10642 10666
10624 10618 10610 10603 10596 10587 10578 10566 10555 10544 10534 10525 10518 10513 10509 10504 10499 10497 10493 10488 10484 10480 10476 10472 10468 10463 10456 10450 10443 10436 10431 10424 10420 10421 10425 10430 10438 10444 10448 10459 10473 10492 10513 10526 10537 10550 10564 10572 10586 10595 10608 10620 10628 10651
10622 10614 10607 10599 10591 10581 10569 10559 10548 10539 10530 10522 10514 10508 10504 10502 10499 10494 10490 10486 10482 10479 10474 10471 10468 10466 10463 10457 10452 10447 10443 10438 10435 10433 10436 10439 10443 10447 10452 10455 10459 10468 10494 10512 10521 10533 10544 10548 10563 10578 10590 10598 10612 10627
10619 10611 10603 10595 10587 10575 10564 10552 10543 10534 10526 10518 10512 10506 10501 10497 10494 10491 10487 10484 10480 10476 10473 10470 10468 10468 10465 10463 10461 10457 10454 10450 10447 10444 10440 10440 10442 10445 10452 10457 10463 10472 10477 10483 10502 10519 10525 10532 10540 10552 10566 10578 10594 10605
10615 10607 10599 10590 10581 10571 10560 10549 10539 10531 10522 10514 10508 10502 10498 10493 10490 10487 10483 10481 10477 10474 10470 10467 10465 10464 10464 10464 10463 10460 10460 10458 10456 10453 10452 10450 10448 10449 10450 10454 10461 10468 10475 10481 10476 10486 10500 10511 10521 10534 10548 10563 10578 10593
10612 10604 10595 10585 10576 10566 10555 10546 10537 10528 10520 10512 10505 10499 10493 10489 10486 10482 10478 10476 10473 10469 10466 10463 10461 10460 10459 10459 10460 10460 10459 10458 10458 10458 10457 10457 10456 10454 10452 10451 10453 10455 10462 10470 10475 10484 10485 10491 10503 10518 10533 10549 10561 10577
10608 10601 10592 10582 10573 10563 10552 10542 10534 10526 10519 10511 10503 10497 10492 10487 10482 10478 10473 10469 10467 10464 10460 10458 10455 10454 10453 10453 10454 10455 10455 10454 10453 10453 10454 10454 10454 10453 10452 10452 10450 10452 10457 10464 10470 10477 10479 10484 10491 10500 10516 10533 10548 10560
10605 10597 10588 10579 10570 10559 10549 10541 10532 10525 10518 10510 10502 10495 10488 10483 10478 10474 10469 10464 10460 10459 10455 10453 10449 10446 10447 10446 10447 10447 10447 10448 10447 10447 10448 10448 10449 10449 10448 10449 10448 10448 10450 10453 10457 10461 10463 10474 10480 10495 10510 10525 10540 10547
10602 10594 10585 10575 10567 10557 10548 10539 10531 10524 10517 10510 10505 10498 10490 10483 10477 10472 10466 10462 10459 10455 10453 10449 10445 10442 10440 10438 10437 10437 10438 10438 10439 10438 10438 10440 10442 10442 10443 10443 10444 10444 10444 10444 10445 10448 10452 10457 10464 10475 10489 10503 10514 10524
10598 10590 10581 10572 10563 10553 10545 10536 10528 10522 10515 10507 10501 10493 10486 10480 10474 10470 10465 10460 10456 10453 10450 10446 10442 10438 10433 10431 10429 10428 10428 10429 10429 10429 10429 10430 10432 10433 10434 10435 10436 10437 10438 10438 10437 10437 10439 10443 10449 10455 10467 10479 10487 10497
10594 10586 10577 10568 10559 10550 10542 10533 10525 10518 10511 10504 10496 10489 10483 10478 10473 10467 10462 10458 10453 10448 10445 10442 10438 10434 10430 10426 10422 10420 10419 10418 10417 10417 10418 10418 10420 10421 10423 10425 10427 10428 10430 10430 10429 10428 10428 10431 10434 10438 10443 10452 10461 10469
10589 10581 10573 10564 10555 10546 10538 10530 10522 10515 10508 10501 10494 10487 10480 10474 10469 10464 10459 10455 10451 10447 10443 10438 10433 10428 10424 10420 10416 10413 10410 10408 10407 10406 10405 10405 10406 10409 10410 10413 10415 10417 10420 10421 10421 10421 10420 10420 10422 10425 10427 10432 10437 10443
10585 10576 10569 10560 10551 10543 10535 10527 10520 10512 10505 10498 10491 10484 10479 10473 10467 10462 10458 10454 10449 10444 10439 10434 10430 10425 10420 10415 10410 10405 10403 10400 10397 10395 10394 10393 10393 10394 10396 10400 10402 10404 10407 10410 10412 10413 10413 10412 10413 10414 10415 10417 10422 10426
10580 10572 10565 10556 10547 10540 10532 10524 10518 10511 10504 10497 10490 10484 10478 10472 10467 10462 10457 10452 10448 10444 10439 10434 10428 10423 10418 10413 10407 10401 10397 10394 10389 10386 10382 10380 10379 10380 10381 10384 10386 10390 10394 10397 10399 10403 10405 10404 10404 10405 10406 10407 10409 10412
10576 10568 10560 10552 10545 10537 10530 10524 10517 10510 10503 10497 10490 10484 10478 10473 10467 10462 10457 10449 10443 10439 10435 10431 10425 10418 10411 10405 10399 10393 10388 10384 10380 10376 10373 10370 10367 10365 10367 10368 10370 10373 10377 10381 10386 10391 10392 10395 10396 10397 10398 10398 10400 10402
10571 10563 10555 10548 10541 10534 10528 10523 10516 10509 10502 10495 10489 10482 10475 10469 10465 10459 10453 10448 10442 10436 10430 10423 10417 10410 10404 10398 10392 10385 10378 10374 10369 10365 10362 10361 10357 10354 10353 10354 10355 10357 10361 10364 10370 10377 10379 10381 10384 10388 10390 10391 10391 10393
10566 10558 10551 10545 10538 10531 10526 10520 10514 10508 10501 10496 10488 10480 10474 10467 10460 10455 10451 10445 10439 10435 10429 10421 10413 10405 10395 10386 10379 10374 10369 10363 10357 10352 10350 10347 10346 10344 10342 10340 10339 10342 10348 10349 10350 10356 10361 10363 10370 10377 10379 10380 10378 10386
10561 10553 10547 10541 10535 10531 10527 10521 10513 10506 10500 10494 10487 10479 10472 10462 10454 10450 10444 10438 10434 10429 10421 10412 10405 10395 10385 10377 10369 10360 10356 10351 10344 10340 10338 10336 10334 10333 10329 10326 10329 10332 10333 10333 10332 10336 10343 10346 10354 10361 10364 10365 10367 10371
10555 10549 10544 10538 10534 10529 10525 10518 10512 10505 10499 10492 10487 10481 10474 10464 10459 10454 10447 10437 10430 10422 10414 10407 10398 10389 10380 10372 10364 10356 10350 10343 10334 10329 10325 10323 10322 10320 10317 10316 10320 10320 10317 10316 10319 10320 10323 10328 10334 10342 10347 10345 10352 10356
10550 10545 10541 10537 10532 10527 10522 10516 10511 10504 10497 10495 10489 10481 10474 10465 10457 10449 10439 10434 10424 10414 10406 10401 10390 10379 10374 10366 10356 10347 10344 10337 10331 10326 10320 10317 10314 10310 10307 10307 10307 10308 10306 10304 10304 10305 10306 10310 10316 10323 10327 10330 10334 10336
10547 10543 10538 10534 10529 10524 10519 10514 10509 10505 10501 10493 10487 10479 10471 10466 10461 10447 10440 10432 10422 10411 10399 10387 10377 10369 10363 10355 10346 10339 10337 10330 10323 10317 10311 10308 10305 10300 10297 10297 10296 10296 10295 10295 10292 10291 10292 10294 10297 10304 10309 10313 10315 10316
10544 10540 10537 10533 10529 10524 10518 10511 10507 10504 10498 10490 10482 10475 10467 10458 10452 10445 10435 10428 10416 10402 10391 10384 10375 10365 10356 10348 10339 10333 10328 10322 10316 10310 10305 10300 10297 10295 10291 10287 10285 10284 10285 10284 10284 10283 10281 10278 10282 10286 10291 10296 10299 10300
10541 10538 10535 10531 10528 10525 10520 10516 10510 10503 10494 10483 10473 10469 10463 10455 10446 10437 10428 10418 10409 10399 10388 10380 10370 10361 10352 10341 10333 10329 10321 10314 10308 10302 10296 10290 10287 10284 10281 10279 10278 10276 10273 10272 10272 10272 10272 10270 10267 10271 10275 10277 10282 10285
10538 10536 10533 10530 10526 10522 10519 10514 10508 10502 10494 10486 10476 10467 10461 10454 10446 10435 10427 10419 10405 10395 10387 10375 10364 10357 10348 10338 10331 10324 10318 10311 10304 10298 10291 10286 10284 10280 10275 10270 10267 10267 10266 10262 10262 10262 10261 10261 10260 10260 10261 10264 10266 10268
10536 10534 10532 10529 10525 10522 10518 10514 10507 10500 10493 10486 10481 10474 10469 10460 10451 10439 10425 10412 10399 10391 10382 10369 10357 10351 10344 10334 10328 10322 10316 10310 10304 10299 10294 10287 10281 10276 10271 10266 10260 10257 10258 10257 10253 10252 10251 10251 10250 10250 10251 10253 10255 10256
10535 10532 10529 10526 10523 10521 10517 10514 10508 10501 10493 10487 10479 10473 10465 10455 10444 10435 10424 10411 10398 10387 10377 10365 10355 10350 10341 10330 10323 10316 10310 10304 10297 10291 10286 10282 10278 10273 10268 10265 10261 10255 10251 10249 10248 10246 10244 10243 10242 10242 10241 10243 10244 10246
10532 10530 10527 10524 10521 10519 10516 10512 10504 10499 10491 10482 10474 10466 10458 10449 10440 10430 10418 10403 10391 10381 10372 10362 10350 10342 10338 10330 10321 10313 10306 10300 10295 10289 10283 10278 10274 10269 10265 10260 10256 10253 10249 10245 10243 10242 10240 10238 10237 10237 10236 10236 10236 10237
10530 10530 10528 10524 10520 10516 10512 10507 10502 10494 10488 10482 10474 10466 10459 10450 10438 10427 10415 10401 10387 10374 10363 10356 10349 10342 10337 10330 10321 10312 10305 10298 10294 10288 10283 10278 10273 10268 10263 10258 10254 10250 10246 10243 10240 10238 10237 10235 10234 10233 10232 10232 10232 10232
10529 10527 10525 10521 10518 10514 10510 10505 10500 10494 10488 10482 10475 10466 10456 10448 10439 10430 10421 10408 10395 10382 10369 10357 10348 10338 10332 10329 10322 10315 10308 10301 10295 10290 10285 10280 10275 10270 10265 10259 10254 10250 10246 10242 10239 10237 10235 10234 10232 10231 10230 10230 10229 10229